cliquez pour ajouter le site Runraid à vos favoris  English version (google)  Retour à l'accueil Ecrire à l'auteur du site Runraid : Michel Jourdan



Les prochaines courses


Les derniers résultats

cliquez pour visualiser la page complète relatant la chronologie des éruptions du Piton de la Fournaise
éruptions Piton de la Fournaise


Ile de La Réunion

 Diagonale des Fous 

Ecrire au créateur du site : Michel Jourdan
Contact


2014-05-29 - La Salazienne

Pour consulter le palmarès d'un coureur, un clic sur son nom !

Vous avez des remarques, corrections, ... sur ces résultats , un clic sur --> pour me transmettre toute information concernant les classements


La Salazienne - 2014 : classement des 315 finishers
Place Nom Temps Cat. Club Sexe Clt/cat.
Place Nom Temps Cat. Club Sexe Clt/cat.
1 RAKOTONDRASOA FULGENCE 03:53:14 SEM - M 477
2 ROBERT THIERRY 03:56:10 SEM ACSAL M 745
3 BARET DIDIER 04:12:13 SEM A.C.B M 810
4 OULEDI WILFRID 04:12:34 V1M A.C.B M 1 V1M 707
5 LEVENEUR jacky 04:16:40 V1M - M 2 V1M 936
6 FERRERE Eddy 04:19:53 V1M - M 3 V1M 825
7 PARMENTIER SEBASTIEN 04:25:33 SEM CAPOSS M 4 SEM 537
8 CAZAL FREDERIC 04:31:39 SEM - M 5 SEM 796
9 CALTRET JOHNNY 04:33:45 V1M A.C.B M 4 V1M 811
10 GANGNANT Nicolas 04:35:54 SEM - M 6 SEM 552
11 LALLEMAND Frederic 04:37:22 SEM - M 7 SEM 922
12 GANCE FABRICE 04:38:52 V1M RAIDERS M 5 V1M 887
13 LAFABLE MICKAEL 04:39:28 V1M CAPP M 6 V1M 728
14 BARDEL Francois 04:40:09 SEM - M 8 SEM 767
15 CLAPIER YANNICK 04:44:10 V1M - M 7 V1M 435
16 LEGER Romain 04:44:58 SEM - M 9 SEM 673
17 CHAPELIN RICO 04:46:34 SEM - M 10 SEM 456
18 HOAREAU THIERRY 04:46:37 SEM - M 11 SEM 897
19 BOYER JOSEPH DANIEL 04:46:53 V1M - M 8 V1M 702
20 LEE SONG YIN Gino 04:48:32 V1M DENIV M 9 V1M 861
21 SAUTRON JEAN YANNICK 04:49:29 SEM - M 12 SEM 433
22 DIJOUX JEAN BERNARD 04:51:04 V1M AVAD M 10 V1M 517
23 FONTANA ARNAUD 04:51:11 V2M - M 1 V2M 519
24 LAURET MICKAEL 04:52:30 SEM - M 13 SEM 602
25 PARMENTIER TEDDY 04:54:16 SEM - M 14 SEM 849
26 CHEVALIER bertrand 04:55:14 SEM - M 15 SEM 875
27 CERVEAUX OLIVIER 04:55:43 SEM - M 16 SEM 838
28 RIVIERE FRANCK 04:56:11 SEM RUN ODYSSEA M 17 SEM 761
29 ESPARON jean claude 04:56:52 V2M - M 2 V2M 797
30 JEANNEAU WILLY 05:01:30 V1M - M 11 V1M 513
31 RAMIN MICHAEL 05:03:53 SEM ACSAL M 18 SEM 742
32 FANJAHANITRINIAINA MARINA 05:05:17 SEF - F 1ere F 472
33 HAEGEL HELENE 05:06:30 V2F RCSD F 1 V2F 893
34 PAYET jean paul 05:07:04 V1M - M 12 V1M 620
35 CLAPIER ERIC 05:07:32 SEM - M 19 SEM 840
36 MAILLOT JANNY 05:08:30 V1M ACSAL M 13 V1M 948
37 MAILLOT YANIS 05:09:48 V1M - M 14 V1M 819
38 CORRe gilles 05:13:17 SEM - M 20 SEM 581
39 MAHAVE JEAN LOUIS 05:13:17 V1M - M 15 V1M 814
40 REOUNE CHRISTIAN 05:14:10 V2M ACBP M 3 V2M 415
41 LAURET FREDERIC 05:15:14 SEM - M 21 SEM 639
42 GAZE ARMANDRIC 05:17:04 SEM ACSAL M 22 SEM 888
43 LARRANAGA URKO 05:18:23 SEM - M 23 SEM 926
44 HUET CHRISTOPHE 05:20:15 V2M CAPP M 4 V2M 757
45 MAHAVE BERNARD 05:20:34 SEM - M 24 SEM 813
46 POTHIN JEAN MICHEL 05:20:51 SEM - M 25 SEM 791
47 AVICE Frederic 05:22:15 V1M - M 16 V1M 723
48 DESFARGES YANNICK 05:24:06 SEM - M 26 SEM 824
49 VELNA boris 05:24:07 SEM - M 27 SEM 807
50 NEBONE CHRISTOPHER 05:25:47 SEM - M 28 SEM 816
51 BOULESTIN CHRISTOPHE 05:26:22 V1M DENIV M 17 V1M 871
52 LEBON PASCAL 05:27:29 SEM CAPOSS M 29 SEM 427
53 URBATRO DOMINIQUE 05:29:04 V1M ACBP M 18 V1M 585
54 BAUDIS CLAIRE 05:29:10 SEF - F 2 SEF 869
55 GONTHIER Patrice 05:29:10 V1M - M 19 V1M 629
56 MAGRIN Mathieu 05:29:18 SEM - M 30 SEM 664
57 DANJOUX Jonathan 05:29:24 SEM - M 31 SEM 878
58 SAMSORA FREDERIC 05:30:51 SEM STASA M 32 SEM 693
59 ROUGET FREDERIC 05:32:22 V1M A.C.B M 20 V1M 579
60 ROBERT Georget 05:32:26 SEM - M 33 SEM 686
61 MAILLOT ARTMANN 05:35:23 SEM - M 34 SEM 946
62 PRIOVILLE MORGAN 05:36:47 SEM - M 35 SEM 667
63 PLANTE PATRICE 05:37:27 SEM - M 36 SEM 845
64 JUSTINE MICHEL 05:38:38 V1M - M 21 V1M 853
65 GOURAMA GIOVANNY 05:38:47 SEM - M 37 SEM 434
66 AUNAY BERTRAND 05:39:01 SEM - M 38 SEM 844
67 MARTIN Vincent 05:39:06 V1M - M 22 V1M 951
68 MOREAU JEAN DAVID 05:39:50 V1M - M 23 V1M 847
69 ADELIN JEAN CLAUDE 05:40:11 V2M ACBP M 5 V2M 648
70 BUISSON DE LA RICHAU JEAN JIMMY 05:40:33 V1M AVAD M 24 V1M 436
71 VIGNOLLES ARNAUD 05:42:55 SEM DENIV M 39 SEM 425
72 POULBASSIA Elvis 05:43:21 SEM - M 40 SEM 412
73 GAULEN JEAN MARIO 05:45:54 V2M ACBP M 6 V2M 650
74 DALAPA AMANA KARL JEAN RENE 05:47:50 V1M CAPP M 25 V1M 877
75 PERRAULT JEAN MARC 05:49:18 V2M ASCS M 7 V2M 469
76 BOCQUILLON Loic 05:50:09 SEM - M 41 SEM 800
77 ARNAUD WILFRID 05:51:52 V1M ORT M 26 V1M 454
78 PUCHEU PAULINE 05:51:56 SEF DENIV F 3 SEF 637
79 MAK YUEN Vincent 05:52:09 SEM - M 42 SEM 596
80 CHAPELIN Henri lucay 05:55:47 SEM - M 43 SEM 574
81 FONTAINE JEAN FRANCOIS 05:55:51 V2M CAPP M 8 V2M 748
82 LALLEMAND william 05:55:51 SEM - M 44 SEM 718
83 ETHEVES NICOLAS 05:57:52 SEM RP974 M 45 SEM 695
84 NATIVEL NOELE 05:57:52 V2F CAPOSS F 2 V2F 701
85 TSIAO JEAN JUDEX 05:58:19 V1M - M 27 V1M 455
86 ARZAC JOHN ALIX 05:58:30 SEM A.C.B M 46 SEM 595
87 HOAREAU ESTHER RENE 05:58:32 V1M A.C.B M 28 V1M 608
88 PAUSe Fabiola 05:58:40 V1F - F 1 V1F 524
89 DAVID MICHEL 05:59:14 V2M RAIDERS M 9 V2M 624
90 LARAVINE JEAN PATRICK 06:00:41 V1M ACBP M 29 V1M 652
91 ANQUIBOU JEAN PASCAL 06:05:21 SEM - M 47 SEM 445
92 GARCIN JACKY 06:05:49 SEM - M 48 SEM 479
93 LAO YIP SEIN GERALD 06:05:49 V1M - M 30 V1M 616
94 MAREUX MAX 06:06:22 V3M CAPOSS M 1 V3M 950
95 CALVO CHRISTINE 06:06:57 SEF - F 4 SEF 842
96 HOAREAU ISAAC 06:06:59 V2M - M 10 V2M 848
97 LIBELLE JEAN RENE 06:08:06 V2M - M 11 V2M 939
98 MAILLOT RUDY 06:08:12 SEM CAPOSS M 49 SEM 431
99 PAUSE CYRIL 06:08:32 V1M - M 31 V1M 850
100 BONALD JOEL 06:08:44 SEM - M 50 SEM 857
101 ROLLAND ALIX 06:09:18 V2M CAPP M 12 V2M 555
102 CHOPINET JEAN IDRIS 06:10:29 SEM A.C.B M 51 SEM 576
103 FONTAINE YVES 06:11:11 V3M DSA M 2 V3M 641
104 FANCHIN VIVIANE 06:11:42 V2F DENIV F 3 V2F 826
105 HOAREAU MYRIELLE 06:12:21 V1F A.C.B F 2 V1F 613
106 DEWAILLY Ambre 06:12:25 SEF - F 5 SEF 881
107 REBOULE VIRGINIE 06:12:38 SEF CAPP F 6 SEF 730
108 ORDEMIR MURAT 06:12:53 V1M - M 32 V1M 952
109 ALLARD NICOLAS 06:13:10 SEM - M 52 SEM 670
110 FONTAINE SULLY 06:14:33 V2M CAPP M 13 V2M 804
111 PRUGNIERES ERIC 06:16:18 V1M - M 33 V1M 856
112 HAMON ERIC 06:16:19 V1M - M 34 V1M 855
113 DESCORSIER Alain 06:16:52 V2M - M 14 V2M 511
114 PAYET serge 06:17:30 V3M - M 3 V3M 779
115 LARAVINE daniel 06:17:32 V1M - M 35 V1M 925
116 BROUDIC David 06:17:35 V1M - M 36 V1M 504
117 JEAN FRANcOIS Annie 06:17:59 V1F - F 3 V1F 921
118 DERVAUX thomas 06:18:02 V1M - M 37 V1M 720
119 FONTAINE fabrice 06:20:12 SEM - M 53 SEM 626
120 JAVARI SYLVAIN 06:21:34 V1M - M 38 V1M 859
121 LORET Samuel 06:22:29 SEM - M 54 SEM 566
122 DUFOUR isabelle 06:23:35 V2F - F 4 V2F 594
123 EMMA CORINNE 06:23:46 SEF CAPOSS F 7 SEF 852
124 REBOULE FREDERIC HENRI 06:24:14 SEM CAPP M 55 SEM 729
125 DENNEMONT SYLVAIN 06:24:14 V2M ACBP M 15 V2M 649
126 CASTAGNO ELISE 06:26:42 SEF CAPOSS F 8 SEF 873
127 MEUNIER CEDRIC 06:27:04 V1M STASA M 39 V1M 694
128 GOMARD JOHN 06:27:27 SEM - M 56 SEM 815
129 BLANCHET Pierrick 06:27:53 SEM - M 57 SEM 675
130 LAI KON DESIRE 06:27:53 SEM CAPOSS M 58 SEM 462
131 OMAR DAVID 06:29:14 SEM - M 59 SEM 471
132 CHABAUD Nadine 06:29:34 V1F - F 4 V1F 658
133 BOUNIARD Melanie 06:32:55 SEF - F 9 SEF 541
134 RIPAULT YANN 06:32:57 V1M - M 40 V1M 416
135 LAU YAM MICHEL 06:33:48 V3M ACSP M 4 V3M 927
136 COUREUR INCONNU 06:33:55 SEM - M 60 SEM 746
137 HILMOINE JEAN MICHEL 06:34:07 SEM - M 61 SEM 895
138 VIRAMOUTOU serge 06:34:08 V1M - M 41 V1M 553
139 ISSACK MOHAMED ZIYAAD 06:34:23 SEM CALS SUD M 62 SEM 514
140 GUILLOT ISABELLE 06:34:32 V1F CAPOSS F 5 V1F 736
141 LEOCADIE JEAN LOUIS 06:34:52 V1M CAPP M 42 V1M 606
142 EVANNO Gabriel 06:34:54 SEM DSA M 63 SEM 883
143 HUBERT BERNARD ALAIN 06:36:26 V2M CAPOSS M 16 V2M 697
144 PAUSE JEAN LUC 06:36:41 SEM ACBP M 64 SEM 404
145 MAILLOT PATRICK 06:37:15 SEM - M 65 SEM 846
146 ROBERT MAURICE JOSEPH 06:37:25 V3M A.C.B M 5 V3M 715
147 CHANEAC Celie 06:37:46 ESF - F 1 ESF 559
148 BLARD BEATRICE 06:39:06 V1F CSSDA F 6 V1F 734
149 JOURDAN sylvain 06:39:18 SEM - M 66 SEM 561
150 JENAMA DAVID 06:39:24 SEM - M 67 SEM 518
151 SAUTRON CHARLES ERIC 06:42:55 V1M A.C.B M 43 V1M 614
152 SALMON Jean Marc 06:43:02 V1M - M 44 V1M 419
153 PLANTE JOHANY 06:43:11 SEM - M 68 SEM 441
154 CAMPTON NOELINE 06:43:13 V1F ACSAL F 7 V1F 808
155 BENARD Yves 06:44:29 SEM - M 69 SEM 751
156 MALLE JEAN MARIE 06:44:38 SEM - M 70 SEM 949
157 LECOCQ ODILE 06:46:46 V1F - F 8 V1F 802
158 MEZINO JEAN HUGUES 06:46:58 V1M - M 45 V1M 461
159 JOUANNOT JEAN LUC 06:47:54 V2M ACSAL M 17 V2M 642
160 CAMUSET guillaume 06:49:56 SEM - M 71 SEM 470
161 LON MON POY ERIC 06:50:56 V1M ACSP M 46 V1M 941
162 BERNIS laure 06:51:02 SEF - F 10 SEF 758
163 PAILLAT JEAN 06:51:07 SEM - M 72 SEM 716
164 LIGNON jean claude 06:53:21 V1M - M 47 V1M 940
165 LEFEBVRE THIERRY 06:53:26 V1M DENIV M 48 V1M 706
166 BERNARD CORINNE 06:53:47 V1F - F 9 V1F 854
167 VIALLET Bruno 06:54:02 V1M - M 49 V1M 617
168 DENOLLY Arnaud 06:54:40 SEM - M 73 SEM 879
169 SINAMALE SOSTHENE 06:55:17 V2M - M 18 V2M 858
170 FRANCOISE Jacky 06:55:33 V1M - M 50 V1M 762
171 FONTAINE REGINE 06:55:46 V2F DSA F 5 V2F 644
172 MAILLOT MANORO KEVINE 06:55:50 SEF - F 11 SEF 836
173 PAJINADON JULIEN 06:56:37 SEM - M 74 SEM 402
174 TOUSSAINT CYRILLE 06:58:35 V1M RUN'A M 51 V1M 766
175 LUSINIER leonus 06:58:53 V3M - M 6 V3M 942
176 VIDOT MARIE THERESE 06:59:44 V1F - F 10 V1F 424
177 SIROUX ELISABETH 07:00:59 SEF CAPOSS F 12 SEF 499
178 BOURQUIN Daniel 07:02:43 SEM - M 75 SEM 792
179 DEQUELSON Hugo 07:02:43 SEM - M 76 SEM 735
180 VARGA Daniel 07:02:44 V1M - M 52 V1M 423
181 FOUQUET SABINE 07:03:27 V1F - F 11 V1F 886
182 CHARLES christophe 07:04:24 V1M - M 53 V1M 532
183 MAHE ERIC 07:04:47 V1M - M 54 V1M 864
184 LHERMINIER anthony 07:05:13 SEM - M 77 SEM 612
185 DUBOC CAROLINE 07:05:19 V2F - F 6 V2F 708
186 LATCHIMY LATCHOUMANI JOSEPH HARRY 07:06:08 V2M DENIV M 19 V2M 525
187 BOURCEREAU FLORENTIN 07:07:13 SEM - M 78 SEM 570
188 BARBIN FREDERIC 07:07:22 V1M - M 55 V1M 460
189 TALPIN jerome 07:07:37 V1M - M 56 V1M 805
190 MALINGA MICHEL 07:07:51 V3M - M 7 V3M 443
191 LAFONT FRANCK 07:07:54 V1M DENIV M 57 V1M 522
192 SERMANDE AIDEE 07:09:06 V1F A.C.B F 12 V1F 812
193 RUBIO LAURENT 07:09:06 SEM RUN ODYSSEA M 79 SEM 589
194 EUDE JEAN CHRISTOPHE 07:09:06 V1M - M 58 V1M 809
195 LAFAY Alexandra 07:09:08 SEF - F 13 SEF 621
196 FADUILHE VALERIE 07:09:17 V1F - F 13 V1F 750
197 PRIOR DAVID 07:09:18 V1M - M 59 V1M 713
198 LAROSE Emmanuel 07:10:05 SEM - M 80 SEM 768
199 LAW SEK JEAN LUC 07:11:13 V2M CAPOSS M 20 V2M 725
200 MILON Dorothee 07:11:36 SEF - F 14 SEF 657
201 BABEF Nicolas 07:11:55 V3M - M 8 V3M 781
202 GOUJON GAETAN 07:13:22 SEM - M 81 SEM 890
203 HOAREAU Paul 07:13:51 V1M - M 60 V1M 609
204 ROBERT Yvette 07:13:51 V2F - F 7 V2F 611
205 DIJOUX CLAUDETTE 07:14:35 V2F - F 8 V2F 698
206 LANGLADE PATRICK 07:14:36 V1M RAIDERS M 61 V1M 557
207 ANZOULLY JEAN LUC 07:15:19 V1M - M 62 V1M 603
208 MARTIN JEAN LUC 07:15:46 V2M LA CHALOUP M 21 V2M 506
209 FERRY Vincent 07:16:28 V1M - M 63 V1M 567
210 RIVIERE MIGUY 07:18:21 V1F ACBP F 14 V1F 584
211 GASNIER CYRIL 07:18:26 SEM - M 82 SEM 558
212 LAOT BRUNO 07:19:57 SEM - M 83 SEM 923
213 GRONDIN Lydie 07:20:22 V1F - F 15 V1F 892
214 MORIN David 07:20:23 V1M - M 64 V1M 954
215 VICTORINE JEAN PIERRE 07:21:30 V1M ACBP M 65 V1M 587
216 FONTAINE christopher 07:21:30 SEM - M 84 SEM 794
217 LAURENS NATHALIE 0,306944444444444 V1F - F 16 V1F 533
218 LAURENS BENOIT 07:22:02 V1M - M 66 V1M 534
219 MARLIERE NICOLAS 07:24:09 SEM DSA M 85 SEM 776
220 FRANCOISE RUDY 07:24:20 SEM - M 86 SEM 760
221 DEMANGE MARIANNE 07:25:06 V2F - F 9 V2F 833
222 PAUSE MARIE ANNICK 07:25:41 V2F ACBP F 10 V2F 583
223 ROLLAND Francois 07:25:47 SEM - M 87 SEM 774
224 VIRGINIUS IRENE 07:28:32 V2M ACBP M 22 V2M 586
225 PERSONNAT Sophie 07:28:38 V1F AC ENTENTE F 17 V1F 407
226 SIERRA MARTIAL 07:28:38 SEM - M 88 SEM 542
227 HOARAU Guy Patrick 07:28:42 V1M - M 67 V1M 623
228 BANOR NATHALIE 07:28:42 V1F - F 18 V1F 480
229 PAYET WILLY 07:33:10 SEM RUN ODYSSEA M 89 SEM 406
230 FRANCO CHRISTOPHE 07:33:10 V1M DDC M 68 V1M 619
231 GARSANI Alain 07:33:27 SEM - M 90 SEM 789
232 BORNET Laurent 07:33:35 SEM - M 91 SEM 672
233 CHAMBRIER David 07:34:09 SEM - M 92 SEM 788
234 ROUSSEL laurent 07:34:55 SEM - M 93 SEM 799
235 PIGNOLET JUNOT 07:34:58 V1M - M 69 V1M 440
236 GUERIN PHILIPPE 07:40:05 V2M RDB M 23 V2M 717
237 AMRATE FOUAD 07:42:04 V1M CALS SUD M 70 V1M 663
238 DEMANGE PASCAL 07:42:16 V2M - M 24 V2M 835
239 SAVRIMOUTOU LUDOVIC 07:42:56 SEM CAPOSS M 94 SEM 426
240 NARSAMA ALAIN 07:43:19 V2M CAPC M 25 V2M 771
241 ATTAMA JEAN FRANCOIS 07:43:24 V1M CAPC M 71 V1M 676
242 PICARD PAUL FLORENT 07:44:09 SEM - M 95 SEM 408
243 DELAVAULT JULIEN 07:44:40 SEM - M 96 SEM 733
244 NATIVEL Mickael 07:44:56 SEM - M 97 SEM 478
245 DRAPEAU Brice 07:44:57 V1M - M 72 V1M 547
246 LESTERLIN Fabien 07:45:31 V1M - M 73 V1M 935
247 FERRERE RANDRIAMAROSON SANDRA 07:48:34 V1F - F 19 V1F 722
248 LAUPE JULIE 07:48:59 V2F - F 11 V2F 457
249 RIOU Helene 07:50:27 SEF - F 15 SEF 820
250 THIBOUT jonathan 07:50:28 SEM - M 98 SEM 821
251 COCHE sophie 07:51:19 SEF - F 16 SEF 572
252 GOURVILLE Daniele 07:51:38 V2F - F 12 V2F 891
253 GODIN Alexandre 07:52:21 SEM - M 99 SEM 759
254 ROBERT Jean noe 07:53:32 SEM - M 100 SEM 755
255 ILLAN MARIE NATHALIE 07:53:58 V1F - F 20 V1F 429
256 SAVRIMOUTHOU YVRAIN 07:54:00 V1M - M 74 V1M 430
257 DARD ANNE CECILE 07:55:31 V1F - F 21 V1F 550
258 VIALLET Frederique 07:56:13 V1F - F 22 V1F 618
259 HOARAU VINCENSINI PASCALE 07:56:26 V1F - F 23 V1F 627
260 HOARAU CHRISTOPHE 07:56:27 V1M RCSD M 75 V1M 896
261 DELGROSSI Valerie 07:56:41 V1F - F 24 V1F 801
262 LEE SONG YIN Sonia 07:59:30 SEF AC Salazie F 17 SEF 741
263 CERVEAU SANDRA 07:59:31 SEF AC Salazie F 18 SEF 740
264 DALELE JEAN MARC 07:59:31 V1M - M 76 V1M 763
265 PIPAUD sebastien 08:00:20 SEM - M 101 SEM 410
266 DUMON Franck 08:00:21 V1M - M 77 V1M 882
267 ABDOOLALLIAS SAABIR 08:00:50 SEM CAPOSS M 102 SEM 867
268 MOUCAZAMBO PATRICE 08:00:54 V2M - M 26 V2M 843
269 GUERNIER Vanina 08:01:01 SEF - F 19 SEF 775
270 HERSENT ALEXANDRA 08:01:15 SEF - F 20 SEF 764
271 HERSENT FABRICE 08:01:16 SEM - M 103 SEM 773
272 BOULANGER FLORENCE 08:02:16 V1F CAPP F 25 V1F 726
273 ROBERT ERIC 08:02:16 V2M CAPP M 27 V2M 737
274 NOURRY CATHERINE 08:02:22 V1F - F 26 V1F 851
275 SIGUIER JEROME 08:03:49 V1M - M 78 V1M 421
276 REFALO Stephane 08:04:15 V1M - M 79 V1M 414
277 BOUFFERET AMELIE 08:05:00 SEF DSA F 21 SEF 538
278 MAYEN Cyrille 08:05:33 V1M - M 80 V1M 630
279 TREGUER JEAN FRANCOIS 08:07:10 SEM - M 104 SEM 795
280 JOUANNOT MARIE 08:08:12 V3F ACSAL F 1 V3F 643
281 SABUCO benoit 08:08:55 SEM - M 105 SEM 705
282 BOUDOC JEAN RENE 08:10:26 V2M - M 28 V2M 704
283 HOAREAU PASCAL 08:10:26 SEM - M 106 SEM 793
284 THeBAUD Nicolas 08:17:25 SEM - M 107 SEM 837
285 CADOT Camille 08:20:33 SEF - F 22 SEF 678
286 SINIMALE WILSON 08:22:27 SEM - M 108 SEM 691
287 GARNIER SYLVIE 08:24:26 V2F - F 13 V2F 806
288 GARNIER PIERRE PHILIPPE 08:24:27 V2M - M 29 V2M 827
289 SALVAT Lucay 08:25:15 V3M - M 9 V3M 803
290 ZADVAT Jounaid 08:26:32 SEM - M 109 SEM 515
291 TESSIER Claire 08:26:32 SEF - F 23 SEF 769
292 PAYET STEPHANIE 08:27:30 SEF - F 24 SEF 699
293 COLBALCHINI Martine 08:31:49 V3F - F 2 V3F 544
294 LEROUX Patrick 08:31:51 V1M - M 81 V1M 933
295 PARIS jean patrick 08:33:18 V1M - M 82 V1M 588
296 ROGER MICKAEL 08:33:33 SEM - M 110 SEM 417
297 LAUPE BENJAMIN 08:35:31 V3M - M 10 V3M 459
298 LARAVINE ALIETTE 08:36:38 V1F ACBP F 27 V1F 651
299 ROBERT REGIS 08:37:18 V1M CAPP M 83 V1M 738
300 BERNARD GEORGES 08:37:19 V1M CAPP M 84 V1M 605
301 TOUSTOU NATHALIE 08:42:36 V1F AB F 28 V1F 422
302 RAVILY BEURARD BRIGITTE 08:44:01 V1F - F 29 V1F 680
303 ATTIAVE Ronnie 08:53:34 V1M - M 85 V1M 868
304 ROBERT MARIE BETTY 09:11:40 V1F CAPP F 30 V1F 732
305 NATALI JEROME 09:13:35 SEM - M 111 SEM 957
306 GARDENAT YANNIS 09:17:07 SEM - M 112 SEM 828
307 NOMEN DOMINIQUE 09:20:52 V3M - M 11 V3M 401
308 LEROY SOPHIE 09:24:38 V1F CSSDA F 31 V1F 934
309 CADINOUCHE KATHIA 09:24:39 V2F - F 14 V2F 516
310 LOMENECH JEAN LUC 09:26:27 V2M - M 30 V2M 638
311 DAL SOGLIO Camille 09:36:21 SEF - F 25 SEF 565
312 LAGOURDE jean luc 09:36:22 V2M - M 31 V2M 679
313 FERNANDES Charles 09:58:13 V3M - M 12 V3M 633
314 CREMA serge 10:07:38 V2M - M 32 V2M 749
315 SERRA sonia 10:33:11 SEF - F 26 SEF 684


ReferencementCe site est listé dans la catégorie Sport : Sports extrêmes Dictionnaire
| Accueil | La Réunion  Vue du ciel | Météo | Cyclones | Volcan | Cirques de Mafate , Cilaos , Salazie | Photos Randonnées | Randonnées Réunion: Randos Espiègle , Courses montagne | Diagonale des Fous |  Marathon des Sables | Voyages Les stats du site | Fonds écran | Plan du site | Blog de runraid | Galerie photos Sport Réunion |